Time,TemperatureF,DewpointF,PressureIn,WindDirection,WindDirectionDegrees,WindSpeedMPH,WindSpeedGustMPH,Humidity,HourlyPrecipIn,Conditions,Clouds,dailyrainin,SoftwareType,DateUTC
2013-03-30 00:03:00,61.1,53.0,30.25,NW,325,3.0,6.0,74,0.00,,,0.00,weatherlink.com 1.10,2013-03-30 04:03:00,
2013-03-30 00:18:00,60.7,52.0,30.25,NNW,332,5.0,7.0,73,0.00,,,0.00,weatherlink.com 1.10,2013-03-30 04:18:00,
2013-03-30 00:33:00,59.8,52.0,30.25,NE,47,4.0,7.0,74,0.00,,,0.00,weatherlink.com 1.10,2013-03-30 04:33:00,
2013-03-30 00:48:00,59.2,51.0,30.24,ENE,62,2.0,7.0,75,0.00,,,0.00,weatherlink.com 1.10,2013-03-30 04:48:00,
2013-03-30 01:04:00,59.2,52.0,30.24,ENE,62,3.0,4.0,76,0.00,,,0.00,weatherlink.com 1.10,2013-03-30 05:04:00,
2013-03-30 01:19:00,59.3,52.0,30.24,ENE,62,0.0,3.0,76,0.00,,,0.00,weatherlink.com 1.10,2013-03-30 05:19:00,
2013-03-30 01:34:00,59.3,52.0,30.23,ENE,66,3.0,5.0,78,0.00,,,0.00,weatherlink.com 1.10,2013-03-30 05:34:00,
2013-03-30 01:49:00,59.3,53.0,30.23,ENE,74,2.0,5.0,79,0.00,,,0.00,weatherlink.com 1.10,2013-03-30 05:49:00,
2013-03-30 02:04:00,59.0,53.0,30.23,ENE,72,0.0,3.0,79,0.00,,,0.00,weatherlink.com 1.10,2013-03-30 06:04:00,
2013-03-30 02:19:00,58.8,53.0,30.23,ENE,72,0.0,1.0,80,0.00,,,0.00,weatherlink.com 1.10,2013-03-30 06:19:00,
2013-03-30 02:34:00,58.5,52.0,30.24,ENE,72,0.0,1.0,80,0.00,,,0.00,weatherlink.com 1.10,2013-03-30 06:34:00,
2013-03-30 02:49:00,58.2,52.0,30.24,ENE,72,2.0,3.0,81,0.00,,,0.00,weatherlink.com 1.10,2013-03-30 06:49:00,
2013-03-30 03:04:00,57.9,52.0,30.23,ENE,72,3.0,4.0,81,0.00,,,0.00,weatherlink.com 1.10,2013-03-30 07:04:00,
2013-03-30 03:19:00,57.5,52.0,30.23,ENE,72,2.0,4.0,81,0.00,,,0.00,weatherlink.com 1.10,2013-03-30 07:19:00,
2013-03-30 03:34:00,57.1,52.0,30.23,ENE,72,2.0,4.0,82,0.00,,,0.00,weatherlink.com 1.10,2013-03-30 07:34:00,
2013-03-30 03:49:00,56.6,51.0,30.23,ENE,72,2.0,4.0,82,0.00,,,0.00,weatherlink.com 1.10,2013-03-30 07:49:00,
2013-03-30 04:04:00,56.3,51.0,30.23,ENE,72,0.0,2.0,82,0.00,,,0.00,weatherlink.com 1.10,2013-03-30 08:04:00,
2013-03-30 04:19:00,56.2,51.0,30.22,ENE,72,0.0,0.0,83,0.00,,,0.00,weatherlink.com 1.10,2013-03-30 08:19:00,
2013-03-30 04:34:00,56.1,51.0,30.22,ENE,72,0.0,3.0,83,0.00,,,0.00,weatherlink.com 1.10,2013-03-30 08:34:00,
2013-03-30 04:49:00,56.0,51.0,30.22,ENE,72,2.0,3.0,84,0.00,,,0.00,weatherlink.com 1.10,2013-03-30 08:49:00,
2013-03-30 05:04:00,56.0,51.0,30.21,ENE,72,3.0,3.0,84,0.00,,,0.00,weatherlink.com 1.10,2013-03-30 09:04:00,
2013-03-30 05:19:00,55.9,51.0,30.21,ENE,72,1.0,3.0,84,0.00,,,0.00,weatherlink.com 1.10,2013-03-30 09:19:00,
2013-03-30 05:34:00,55.7,51.0,30.21,ENE,72,0.0,3.0,84,0.00,,,0.00,weatherlink.com 1.10,2013-03-30 09:34:00,
2013-03-30 05:49:00,55.7,51.0,30.21,ENE,72,0.0,2.0,85,0.00,,,0.00,weatherlink.com 1.10,2013-03-30 09:49:00,
2013-03-30 06:04:00,55.9,52.0,30.22,ENE,72,1.0,2.0,86,0.00,,,0.00,weatherlink.com 1.10,2013-03-30 10:04:00,
2013-03-30 06:19:00,55.8,51.0,30.23,ENE,72,2.0,3.0,85,0.00,,,0.00,weatherlink.com 1.10,2013-03-30 10:19:00,
2013-03-30 06:34:00,55.5,51.0,30.22,ENE,72,3.0,4.0,85,0.00,,,0.00,weatherlink.com 1.10,2013-03-30 10:34:00,
2013-03-30 06:49:00,55.4,51.0,30.23,ENE,72,2.0,4.0,86,0.00,,,0.00,weatherlink.com 1.10,2013-03-30 10:49:00,
2013-03-30 07:04:00,55.3,51.0,30.23,ENE,72,2.0,4.0,86,0.00,,,0.00,weatherlink.com 1.10,2013-03-30 11:04:00,
2013-03-30 07:19:00,55.6,52.0,30.23,ENE,72,3.0,5.0,87,0.00,,,0.00,weatherlink.com 1.10,2013-03-30 11:19:00,
2013-03-30 07:34:00,56.3,53.0,30.24,ENE,72,5.0,6.0,87,0.00,,,0.00,weatherlink.com 1.10,2013-03-30 11:34:00,
2013-03-30 07:49:00,56.9,53.0,30.25,ENE,68,2.0,4.0,86,0.00,,,0.00,weatherlink.com 1.10,2013-03-30 11:49:00,
2013-03-30 08:04:00,57.3,53.0,30.26,ENE,63,0.0,6.0,86,0.00,,,0.00,weatherlink.com 1.10,2013-03-30 12:04:00,
2013-03-30 08:19:00,58.0,54.0,30.27,ENE,62,4.0,6.0,86,0.00,,,0.00,weatherlink.com 1.10,2013-03-30 12:19:00,
2013-03-30 08:34:00,59.1,55.0,30.27,ENE,62,2.0,6.0,85,0.00,,,0.00,weatherlink.com 1.10,2013-03-30 12:34:00,
2013-03-30 08:49:00,60.5,55.0,30.27,ENE,60,4.0,8.0,83,0.00,,,0.00,weatherlink.com 1.10,2013-03-30 12:49:00,
2013-03-30 09:04:00,62.2,56.0,30.27,ENE,72,2.0,9.0,81,0.00,,,0.00,weatherlink.com 1.10,2013-03-30 13:04:00,
2013-03-30 09:19:00,63.9,57.0,30.27,NE,56,6.0,8.0,78,0.00,,,0.00,weatherlink.com 1.10,2013-03-30 13:19:00,
2013-03-30 09:34:00,65.5,57.0,30.27,East,97,5.0,11.0,75,0.00,,,0.00,weatherlink.com 1.10,2013-03-30 13:34:00,
2013-03-30 09:49:00,67.1,57.0,30.27,East,100,4.0,9.0,71,0.00,,,0.00,weatherlink.com 1.10,2013-03-30 13:49:00,
2013-03-30 10:05:00,68.5,58.0,30.27,ENE,62,7.0,12.0,69,0.00,,,0.00,weatherlink.com 1.10,2013-03-30 14:05:00,
2013-03-30 10:20:00,69.7,58.0,30.27,East,91,3.0,10.0,66,0.00,,,0.00,weatherlink.com 1.10,2013-03-30 14:20:00,
2013-03-30 10:35:00,70.9,58.0,30.27,SE,133,4.0,14.0,64,0.00,,,0.00,weatherlink.com 1.10,2013-03-30 14:35:00,
2013-03-30 10:50:00,71.5,57.0,30.27,ESE,115,8.0,13.0,61,0.00,,,0.00,weatherlink.com 1.10,2013-03-30 14:50:00,
2013-03-30 11:05:00,71.8,57.0,30.27,SE,132,9.0,16.0,59,0.00,,,0.00,weatherlink.com 1.10,2013-03-30 15:05:00,
2013-03-30 11:20:00,71.7,55.0,30.27,ESE,119,8.0,17.0,56,0.00,,,0.00,weatherlink.com 1.10,2013-03-30 15:20:00,
2013-03-30 11:35:00,72.4,56.0,30.26,ESE,121,3.0,14.0,57,0.00,,,0.00,weatherlink.com 1.10,2013-03-30 15:35:00,
2013-03-30 11:50:00,74.2,56.0,30.26,ESE,120,2.0,12.0,54,0.00,,,0.00,weatherlink.com 1.10,2013-03-30 15:50:00,
2013-03-30 12:05:00,75.1,57.0,30.25,ESE,119,2.0,12.0,53,0.00,,,0.00,weatherlink.com 1.10,2013-03-30 16:05:00,
2013-03-30 12:20:00,75.4,56.0,30.25,ENE,77,4.0,14.0,51,0.00,,,0.00,weatherlink.com 1.10,2013-03-30 16:20:00,
2013-03-30 12:35:00,75.2,56.0,30.24,ENE,70,6.0,11.0,51,0.00,,,0.00,weatherlink.com 1.10,2013-03-30 16:35:00,
2013-03-30 12:50:00,76.3,57.0,30.23,East,91,5.0,8.0,51,0.00,,,0.00,weatherlink.com 1.10,2013-03-30 16:50:00,
2013-03-30 13:05:00,77.2,56.0,30.23,East,98,2.0,12.0,49,0.00,,,0.00,weatherlink.com 1.10,2013-03-30 17:05:00,
2013-03-30 13:20:00,79.2,58.0,30.23,ENE,60,6.0,10.0,48,0.00,,,0.00,weatherlink.com 1.10,2013-03-30 17:20:00,
2013-03-30 13:35:00,79.1,58.0,30.22,SSW,201,1.0,10.0,49,0.00,,,0.00,weatherlink.com 1.10,2013-03-30 17:35:00,
2013-03-30 13:50:00,76.3,57.0,30.21,SSW,208,10.0,19.0,52,0.00,,,0.00,weatherlink.com 1.10,2013-03-30 17:50:00,
2013-03-30 14:05:00,75.4,57.0,30.20,SSW,202,10.0,16.0,54,0.00,,,0.00,weatherlink.com 1.10,2013-03-30 18:05:00,
2013-03-30 14:20:00,74.8,58.0,30.20,SSW,206,11.0,17.0,56,0.00,,,0.00,weatherlink.com 1.10,2013-03-30 18:20:00,
2013-03-30 14:35:00,74.9,58.0,30.19,WSW,238,13.0,18.0,55,0.00,,,0.00,weatherlink.com 1.10,2013-03-30 18:35:00,
2013-03-30 14:50:00,75.2,59.0,30.19,SSW,211,9.0,15.0,57,0.00,,,0.00,weatherlink.com 1.10,2013-03-30 18:50:00,
2013-03-30 15:05:00,75.1,59.0,30.18,SW,230,6.0,14.0,57,0.00,,,0.00,weatherlink.com 1.10,2013-03-30 19:05:00,
2013-03-30 15:20:00,74.3,59.0,30.18,West,268,13.0,18.0,59,0.00,,,0.00,weatherlink.com 1.10,2013-03-30 19:20:00,
2013-03-30 15:36:00,74.1,60.0,30.17,WSW,252,4.0,15.0,61,0.00,,,0.00,weatherlink.com 1.10,2013-03-30 19:36:00,
2013-03-30 15:50:00,73.7,60.0,30.17,WSW,237,9.0,17.0,62,0.00,,,0.00,weatherlink.com 1.10,2013-03-30 19:50:00,
2013-03-30 16:05:00,73.9,59.0,30.16,WSW,255,5.0,15.0,60,0.00,,,0.00,weatherlink.com 1.10,2013-03-30 20:05:00,
2013-03-30 16:20:00,73.5,59.0,30.16,West,270,10.0,19.0,60,0.00,,,0.00,weatherlink.com 1.10,2013-03-30 20:20:00,
2013-03-30 16:35:00,73.5,59.0,30.16,West,268,6.0,12.0,60,0.00,,,0.00,weatherlink.com 1.10,2013-03-30 20:35:00,
2013-03-30 16:50:00,74.0,59.0,30.16,West,260,8.0,13.0,59,0.00,,,0.00,weatherlink.com 1.10,2013-03-30 20:50:00,
2013-03-30 17:05:00,73.7,58.0,30.16,SW,235,8.0,15.0,59,0.00,,,0.00,weatherlink.com 1.10,2013-03-30 21:05:00,
2013-03-30 17:20:00,73.9,59.0,30.16,WSW,245,8.0,10.0,61,0.00,,,0.00,weatherlink.com 1.10,2013-03-30 21:20:00,
2013-03-30 17:35:00,74.0,59.0,30.15,West,268,5.0,13.0,60,0.00,,,0.00,weatherlink.com 1.10,2013-03-30 21:35:00,
2013-03-30 17:51:00,73.6,57.0,30.15,West,260,7.0,15.0,57,0.00,,,0.00,weatherlink.com 1.10,2013-03-30 21:51:00,
2013-03-30 18:06:00,73.3,57.0,30.15,WSW,239,5.0,11.0,58,0.00,,,0.00,weatherlink.com 1.10,2013-03-30 22:06:00,
2013-03-30 18:21:00,73.3,58.0,30.15,WSW,242,5.0,10.0,60,0.00,,,0.00,weatherlink.com 1.10,2013-03-30 22:21:00,
2013-03-30 18:36:00,73.4,58.0,30.15,SSW,206,4.0,6.0,59,0.00,,,0.00,weatherlink.com 1.10,2013-03-30 22:36:00,
2013-03-30 18:51:00,73.3,58.0,30.16,WSW,257,3.0,7.0,60,0.00,,,0.00,weatherlink.com 1.10,2013-03-30 22:51:00,
2013-03-30 19:06:00,72.9,58.0,30.16,West,266,3.0,7.0,60,0.00,,,0.00,weatherlink.com 1.10,2013-03-30 23:06:00,
2013-03-30 19:21:00,72.2,58.0,30.16,WSW,244,3.0,7.0,61,0.00,,,0.00,weatherlink.com 1.10,2013-03-30 23:21:00,
2013-03-30 19:36:00,71.3,58.0,30.16,WSW,245,2.0,7.0,63,0.00,,,0.00,weatherlink.com 1.10,2013-03-30 23:36:00,
2013-03-30 19:51:00,70.6,58.0,30.17,WSW,245,1.0,4.0,64,0.00,,,0.00,weatherlink.com 1.10,2013-03-30 23:51:00,
2013-03-30 20:06:00,70.1,58.0,30.16,WSW,245,0.0,2.0,66,0.00,,,0.00,weatherlink.com 1.10,2013-03-31 00:06:00,
2013-03-30 20:21:00,69.6,58.0,30.17,WSW,245,0.0,2.0,67,0.00,,,0.00,weatherlink.com 1.10,2013-03-31 00:21:00,
2013-03-30 20:36:00,69.2,58.0,30.18,WSW,245,0.0,0.0,68,0.00,,,0.00,weatherlink.com 1.10,2013-03-31 00:36:00,
2013-03-30 20:51:00,68.6,58.0,30.18,WSW,245,0.0,0.0,68,0.00,,,0.00,weatherlink.com 1.10,2013-03-31 00:51:00,
2013-03-30 21:06:00,68.0,57.0,30.18,WSW,245,0.0,0.0,69,0.00,,,0.00,weatherlink.com 1.10,2013-03-31 01:06:00,
2013-03-30 21:21:00,67.4,58.0,30.18,WSW,245,0.0,0.0,71,0.00,,,0.00,weatherlink.com 1.10,2013-03-31 01:21:00,
2013-03-30 21:36:00,66.9,58.0,30.18,WSW,245,0.0,0.0,72,0.00,,,0.00,weatherlink.com 1.10,2013-03-31 01:36:00,
2013-03-30 21:51:00,66.5,58.0,30.19,WSW,245,0.0,0.0,73,0.00,,,0.00,weatherlink.com 1.10,2013-03-31 01:51:00,
2013-03-30 22:36:00,65.3,58.0,30.20,WSW,245,0.0,0.0,76,0.00,,,0.00,weatherlink.com 1.10,2013-03-31 02:36:00,
2013-03-30 22:51:00,64.9,57.0,30.21,WSW,245,0.0,0.0,76,0.00,,,0.00,weatherlink.com 1.10,2013-03-31 02:51:00,